Regional Weather Roundup
Issued by NWS

Home | Current Version | Previous Version | Graphics & Text | Print | Product List | Glossary On
Versions: 1 2 3 4 5 6 7 8 9 10 11 12 13 14 15 16 17 18 19 20 21 22 23 24 25 26 27 28 29 30 31 32 33 34 35 36 37 38 39 40 41 42 43 44 45 46 47 48 49 50
000
ASUS43 KMPX 230601
RWRMN
WEATHER ROUNDUP FOR MINNESOTA
NATIONAL WEATHER SERVICE TWIN CITIES/CHANHASSEN MN
100 AM CDT SAT AUG 23 2014


NOTE: "FAIR" INDICATES FEW OR NO CLOUDS BELOW 12,000 FEET WITH NO
SIGNIFICANT WEATHER AND/OR OBSTRUCTIONS TO VISIBILITY. N/A MEANS
CURRENT SKY AND/OR WEATHER CONDITIONS ARE NOT AVAILABLE.

MNZ060>063-068>070-230700-
   Twin Cities Metro

CITY           SKY/WX    TMP DP  RH WIND       PRES   REMARKS
TWIN CITIES    FAIR      70  68  93 NE5       30.00F
6HR MIN TEMP:  70; 6HR MAX TEMP:  76;

ST PAUL        FAIR      71  68  90 CALM      30.01S
CRYSTAL        FAIR      69  66  90 NE3       29.99F
BLAINE         FAIR      70  70 100 N5        30.01F
LAKEVILLE      FAIR      64  64 100 N3        30.00F
EDEN PRAIRIE   FAIR      69  67  93 CALM      29.99F
6HR MIN TEMP:  68; 6HR MAX TEMP:  77;

SOUTH ST PAUL  FAIR      71  68  89 NE3       30.00S
LAKE ELMO      FAIR      70  68  94 CALM      30.02F
$$
MNZ001>005-007-008-013>017-022>024-027-028-230700-
   Northwest Minnesota

CITY           SKY/WX    TMP DP  RH WIND       PRES   REMARKS
BEMIDJI        FOG       63  63  99 CALM      30.06S VSB 1/2
HALLOCK        CLOUDY    64  61  88 N9        30.12R
ROSEAU         CLOUDY    64  61  88 N6        30.10R
WARROAD        CLOUDY    64  61  88 N7        30.10R
THIEF RVR FALL CLOUDY    64  64 100 N10       30.08S
CROOKSTON      LGT RAIN  63  63 100 N10       30.09R
FOSSTON        CLOUDY    66  64  94 CALM      30.07S
DETROIT LAKES  CLOUDY    68  64  88 N7        30.07F FOG
MOORHEAD       CLOUDY    66  66 100 N9        30.06F
PARK RAPIDS    MOCLDY    66  64  93 CALM      30.05S FOG
MAHNOMEN       CLOUDY    67  66  99 CALM      30.07R FOG
$$
MNZ006-009>011-018-025>026-230700-
   North Central Minnesota

CITY           SKY/WX    TMP DP  RH WIND       PRES   REMARKS
BAUDETTE       FAIR      63  62  97 CALM      30.08S FOG
FLAG ISLAND    CLOUDY    66  64  94 NW10      30.08S
INTL FALLS     FAIR      62  61  96 CALM      30.07S FOG
6HR MIN TEMP:  60; 6HR MAX TEMP:  73;

WASKISH        CLOUDY    68  66  94 CALM      30.07S
BIG FORK       DRIZZLE   68  66  94 CALM      30.07S
LONGVILLE      FAIR      66  66 100 CALM      30.05S FOG
GRAND RAPIDS   CLOUDY    66  64  94 SE6       30.06F
CRANE LAKE     CLOUDY    61  61 100 CALM      30.09S
ORR            CLOUDY    64  63  94 CALM      30.05S
COOK           CLOUDY    66  64  94 CALM      30.08R
WALKER         FOG       64  64 100 CALM      30.05S VSB 1/2
$$
MNZ012-019>021-037-230700-
   Northeast Minnesota

CITY           SKY/WX    TMP DP  RH WIND       PRES   REMARKS
DULUTH         FAIR      62  59  90 CALM      30.07S
6HR MIN TEMP:  62; 6HR MAX TEMP:  64;

ELY            CLOUDY    66  63  88 CALM      30.08S
HIBBING        CLOUDY    66  63  90 SE3       30.08R
EVELETH        CLOUDY    63  63 100 CALM      30.09F FOG
DULUTH HARBOR  FAIR      63  61  94 CALM      30.07S
TWO HARBORS    CLOUDY    63  57  82 CALM      30.05S
SILVER BAY     FAIR      63  63 100 CALM      30.05S
GRAND MARAIS     N/A     62  60  93 NE3       30.06S
G MARAIS ARPRT CLOUDY    61  57  88 CALM      30.11S
$$
MNZ029>031-032-039>041-046>048-054>057-064-230700-
   West Central Minnesota

CITY           SKY/WX    TMP DP  RH WIND       PRES   REMARKS
FERGUS FALLS   FAIR      66  64  94 N3        30.03F
WHEATON        MOCLDY    64  63  94 N5        30.04F
MORRIS         FAIR      70  70 100 N6        30.01F
ALEXANDRIA     FAIR      70  68  93 E5        30.05F
ELBOW LAKE     FAIR      66  65  97 N5        30.02F
WADENA         MOCLDY    64  63  94 CALM      30.04F
GLENWOOD       FAIR      70  66  88 NE6       30.03F
APPLETON       DRIZZLE   73  68  83 NE3       30.00F
BENSON         FAIR      72  70  94 E3        30.01F
ORTONVILLE     MOCLDY    70  66  88 N7        30.02F
MADISON        FAIR      73  72  94 N5        30.00F
WILLMAR        FAIR      72  68  88 E5        30.02F
$$
MNZ033>034-036-042>043-049>051-058-059-230700-
   Central Minnesota

CITY           SKY/WX    TMP DP  RH WIND       PRES   REMARKS
ST CLOUD       FAIR      69  66  90 E3        30.02F
6HR MIN TEMP:  69; 6HR MAX TEMP:  79;

SAUK CENTRE    FAIR      69  66  90 E3        30.04S
PAYNESVILLE    FAIR      66  65  99 CALM      30.03F
AITKIN         FAIR      64  57  77 CALM      30.05S HAZE
PINE RIVER     CLOUDY    70  70 100 SE6       30.08S
BRAINERD       CLOUDY    66  65  96 CALM      30.05S
STAPLES        FAIR      66  66 100 CALM      30.04F
LONG PRAIRIE   FAIR      66  64  94 CALM      30.05S
LITTLE FALLS   FAIR      64  63  94 CALM      30.04S
LITCHFIELD     FAIR      72  72 100 E3        30.02F
BUFFALO        FAIR      68  65  91 NE6       30.01F
MAPLE LAKE     FAIR      68  67  96 CALM      30.02F
$$
MNZ037-044-045-052-053-230700-
   East Central Minnesota

CITY           SKY/WX    TMP DP  RH WIND       PRES   REMARKS
PRINCETON      FAIR      68  66  94 NE1       30.04S
MORA           CLOUDY    64  63  94 CALM      30.06F
CAMBRIDGE      FAIR      68  61  77 CALM      30.01F
RUSH CITY      CLOUDY    66  64  91 NE5       30.04S
MOOSE LAKE     CLOUDY    61  59  94 NE3       30.05F FOG
HINCKLEY       CLOUDY    64  63  94 N3        30.06S
CLOQUET        CLOUDY    63  61  94 E6        30.07F FOG
MCGREGOR       CLOUDY    63  61  94 E5        30.07S
$$
MNZ071>073-080-081-089-090-097-098-230700-
   Southwest Minnesota

CITY           SKY/WX    TMP DP  RH WIND       PRES   REMARKS
MONTEVIDEO     FAIR      72  70  94 E6        30.01F
GRANITE FALLS  FAIR      71  70  96 NE6       30.01S
CANBY          FAIR      71  69  94 NW6       30.02S
MARSHALL       FAIR      72  68  88 E6        29.98F
REDWOOD FALLS  FAIR      72  70  93 NE6       29.99S
OLIVIA         FAIR      70  66  88 E3        29.99S FOG
PIPESTONE      FAIR      72  70  94 CALM      29.99F
WINDOM         FAIR      70  66  88 E7        29.99F
WORTHINGTON      N/A     70  70 100 E6        30.00F
JACKSON        FAIR      70  66  88 E7        30.00S
TRACY          FAIR      72  70  93 CALM      30.00S
SLAYTON        FAIR      70  69  95 CALM      30.01S
$$
MNZ065>067-074>077-082>085-091>093-230700-
   South Central Minnesota

CITY           SKY/WX    TMP DP  RH WIND       PRES   REMARKS
MANKATO        FAIR      70  64  83 E7        29.98F
NEW ULM        FAIR      70  70 100 E9        29.99S
ST JAMES       FAIR      70  66  88 NE3       29.99F
FAIRMONT       FAIR      64  64 100 SE6       29.99S
GLENCOE        FAIR      69  65  88 E3        30.00F
FARIBAULT      FAIR      70  64  83 CALM      30.00F HAZE
OWATONNA       FAIR      70  66  88 E5        30.00F
WASECA         FAIR      68  63  83 NE8       30.01S
ALBERT LEA     FAIR      70  68  94 E7          N/A  FOG
$$
MNZ078>079-086>088-094>096-230700-
   Southeast Minnesota

CITY           SKY/WX    TMP DP  RH WIND       PRES   REMARKS
ROCHESTER      FAIR      70  67  90 NE8       30.01F
6HR MIN TEMP:  70; 6HR MAX TEMP:  81;

RED WING       FAIR      70  66  88 CALM      29.98F
STANTON        FAIR      67  65  92 CALM      29.99S FOG
DODGE CENTER   FAIR      66  66 100 E5        30.01F FOG
WINONA         FAIR      73  72  94 NW5       29.99S
AUSTIN         FAIR      70  68  94 NE7       30.00F FOG
PRESTON        FAIR      68  68 100 N7        30.01S FOG
$$
ABBREVIATIONS USED IN REMARKS
   TC - TEMPERATURES IN CELSIUS
  WCI - WIND CHILL INDEX
   HX - HEAT INDEX
  VSB - VISIBILITY
$$


USA.gov is the U.S. government's official web portal to all federal, state and local government web resources and services.